Mount Airy, NC

7:24 PM EDT on September 22, 2017 (GMT -0400)
Mount Airy-Surry County

Weather History for KMWK - October, 2011

Change the Weather History Date:

Monday, October 17, 2011

  Actual Average (KINT) Record (KINT)
Temperature  
Mean Temperature 66 °F -  
Max Temperature 80 °F 67 °F 83 °F (1984)
Min Temperature 51 °F 47 °F 29 °F (1978)
Growing Degree Days 16 (Base 50)    
Moisture  
Dew Point 49 °F    
Average Humidity 61    
Maximum Humidity 82    
Minimum Humidity 34    
Precipitation  
Precipitation 0.00 in - - ()
Sea Level Pressure  
Sea Level Pressure 29.90 in    
Wind  
Wind Speed 2 mph (SW)    
Max Wind Speed 8 mph    
Max Gust Speed 16 mph    
Visibility 10 miles    
Events      
Averages and records for this station are not official NWS values.
T = Trace of Precipitation, MM = Missing Value Source: NWS Daily Summary

Daily Weather History Graph

Daily Weather History Graph

Search for Another Location

Airport or City:

Trip Planner

Search our weather history database for the weather conditions in past years. The results will help you decide how hot, cold, wet, or windy it might be!

Date:

Astronomy

Oct. 17, 2011 Rise Set
Actual Time 7:30 AM EDT 6:43 PM EDT
Civil Twilight 7:04 AM EDT 7:09 PM EDT
Nautical Twilight 6:34 AM EDT 7:39 PM EDT
Astronomical Twilight 6:05 AM EDT 8:09 PM EDT
Moon 10:29 PM EDT (10/17) 12:29 PM EDT (10/17)
Length of Visible Light 12h 04m
Length of Day
11h 12m
Waning Gibbous, 74% of the Moon is Illuminated
Oct 17
Waning Gibbous
Oct 19
Last Quarter
Oct 26
New
Nov 2
First Quarter
Nov 10
Full

Hourly Weather History & Observations

Time (EDT) Temp. Heat Index Dew Point Humidity Pressure Visibility Wind Dir Wind Speed Gust Speed Precip Events Conditions
12:15 AM 53.6 °F - 48.2 °F 82% 29.93 in 10.0 mi South 3.5 mph - N/A   Clear
12:35 AM 59.0 °F - 48.2 °F 67% 29.92 in 10.0 mi Calm Calm - N/A   Clear
12:55 AM 60.8 °F - 46.4 °F 59% 29.92 in 10.0 mi Calm Calm - N/A   Clear
1:15 AM 59.0 °F - 46.4 °F 63% 29.92 in 10.0 mi North 3.5 mph - N/A   Clear
1:35 AM 55.4 °F - 48.2 °F 77% 29.92 in 10.0 mi Calm Calm - N/A   Clear
1:55 AM 53.6 °F - 48.2 °F 82% 29.93 in 10.0 mi Calm Calm - N/A   Clear
2:15 AM 53.6 °F - 48.2 °F 82% 29.92 in 10.0 mi Calm Calm - N/A   Clear
2:35 AM 53.6 °F - 48.2 °F 82% 29.92 in 10.0 mi Calm Calm - N/A   Clear
2:55 AM 57.2 °F - 48.2 °F 72% 29.92 in 10.0 mi Calm Calm - N/A   Clear
3:15 AM 55.4 °F - 48.2 °F 77% 29.92 in 10.0 mi Calm Calm - N/A   Clear
3:35 AM 53.6 °F - 46.4 °F 77% 29.92 in 10.0 mi Calm Calm - N/A   Clear
3:55 AM 53.6 °F - 48.2 °F 82% 29.92 in 10.0 mi Calm Calm - N/A   Clear
4:15 AM 53.6 °F - 48.2 °F 82% 29.92 in 10.0 mi Calm Calm - N/A   Clear
4:35 AM 55.4 °F - 46.4 °F 72% 29.92 in 10.0 mi Calm Calm - N/A   Clear
4:55 AM 53.6 °F - 46.4 °F 77% 29.92 in 10.0 mi Calm Calm - N/A   Clear
5:15 AM 53.6 °F - 46.4 °F 77% 29.92 in 10.0 mi Calm Calm - N/A   Clear
5:35 AM 51.8 °F - 46.4 °F 82% 29.92 in 10.0 mi Calm Calm - N/A   Clear
5:55 AM 51.8 °F - 46.4 °F 82% 29.92 in 10.0 mi Calm Calm - N/A   Clear
6:15 AM 53.6 °F - 46.4 °F 77% 29.92 in 10.0 mi Calm Calm - N/A   Clear
6:35 AM 51.8 °F - 46.4 °F 82% 29.92 in 10.0 mi Calm Calm - N/A   Clear
6:55 AM 51.8 °F - 46.4 °F 82% 29.92 in 10.0 mi Calm Calm - N/A   Clear
7:15 AM 53.6 °F - 46.4 °F 77% 29.93 in 10.0 mi Calm Calm - N/A   Clear
7:35 AM 51.8 °F - 46.4 °F 82% 29.92 in 10.0 mi Calm Calm - N/A   Clear
7:55 AM 53.6 °F - 46.4 °F 77% 29.92 in 10.0 mi Calm Calm - N/A   Clear
8:15 AM 55.4 °F - 48.2 °F 77% 29.92 in 10.0 mi Calm Calm - N/A   Clear
8:35 AM 55.4 °F - 50.0 °F 82% 29.93 in 10.0 mi Calm Calm - N/A   Clear
8:55 AM 59.0 °F - 50.0 °F 72% 29.93 in 10.0 mi Calm Calm - N/A   Clear
9:15 AM 60.8 °F - 51.8 °F 72% 29.93 in 10.0 mi Calm Calm - N/A   Clear
9:35 AM 64.4 °F - 51.8 °F 64% 29.93 in 10.0 mi Calm Calm - N/A   Clear
9:55 AM 68.0 °F - 50.0 °F 52% 29.93 in 10.0 mi WSW 3.5 mph - N/A   Clear
10:15 AM 69.8 °F - 50.0 °F 49% 29.93 in 10.0 mi WSW 4.6 mph - N/A   Clear
10:35 AM 71.6 °F - 50.0 °F 46% 29.93 in 10.0 mi Calm Calm - N/A   Clear
10:55 AM 71.6 °F - 50.0 °F 46% 29.92 in 10.0 mi WSW 3.5 mph - N/A   Clear
11:15 AM 71.6 °F - 51.8 °F 50% 29.93 in 10.0 mi WSW 3.5 mph - N/A   Clear
11:35 AM 73.4 °F - 50.0 °F 44% 29.92 in 10.0 mi WSW 3.5 mph - N/A   Clear
11:55 AM 73.4 °F - 50.0 °F 44% 29.91 in 10.0 mi SW 3.5 mph - N/A   Clear
12:15 PM 73.4 °F - 51.8 °F 47% 29.91 in 10.0 mi SW 5.8 mph - N/A   Clear
12:35 PM 75.2 °F - 51.8 °F 44% 29.90 in 10.0 mi SW 4.6 mph - N/A   Clear
12:55 PM 77.0 °F - 50.0 °F 39% 29.89 in 10.0 mi WSW 4.6 mph - N/A   Clear
1:15 PM 78.8 °F - 50.0 °F 36% 29.88 in 10.0 mi WSW 8.1 mph - N/A   Clear
1:35 PM 80.6 °F - 51.8 °F 37% 29.87 in 10.0 mi SW 5.8 mph - N/A   Clear
1:55 PM 80.6 °F - 50.0 °F 34% 29.86 in 10.0 mi WSW 5.8 mph - N/A   Clear
2:15 PM 80.6 °F - 50.0 °F 34% 29.85 in 10.0 mi WSW 8.1 mph 16.1 mph N/A   Clear
2:35 PM 80.6 °F - 50.0 °F 34% 29.85 in 10.0 mi SSW 6.9 mph - N/A   Clear
2:55 PM 80.6 °F - 51.8 °F 37% 29.85 in 10.0 mi South 8.1 mph - N/A   Scattered Clouds
3:15 PM 80.6 °F 80.3 °F 53.6 °F 39% 29.84 in 10.0 mi South 4.6 mph - N/A   Scattered Clouds
3:35 PM 80.6 °F - 51.8 °F 37% 29.84 in 10.0 mi SSW 5.8 mph - N/A   Scattered Clouds
3:55 PM 80.6 °F - 51.8 °F 37% 29.84 in 10.0 mi SSW 5.8 mph - N/A   Clear
4:15 PM 80.6 °F - 51.8 °F 37% 29.84 in 10.0 mi SSW 4.6 mph - N/A   Clear
4:35 PM 80.6 °F - 51.8 °F 37% 29.84 in 10.0 mi SW 4.6 mph - N/A   Scattered Clouds
4:55 PM 78.8 °F - 53.6 °F 42% 29.84 in 10.0 mi Calm Calm - N/A   Scattered Clouds
5:15 PM 78.8 °F - 53.6 °F 42% 29.84 in 10.0 mi South 3.5 mph - N/A   Clear
5:35 PM 78.8 °F - 51.8 °F 39% 29.84 in 10.0 mi Calm Calm - N/A   Scattered Clouds
5:55 PM 77.0 °F - 53.6 °F 44% 29.85 in 10.0 mi Calm Calm - N/A   Scattered Clouds
6:15 PM 77.0 °F - 53.6 °F 44% 29.85 in 10.0 mi Calm Calm - N/A   Scattered Clouds
6:35 PM 75.2 °F - 53.6 °F 47% 29.85 in 10.0 mi Calm Calm - N/A   Scattered Clouds
6:55 PM 73.4 °F - 53.6 °F 50% 29.85 in 10.0 mi Calm Calm - N/A   Scattered Clouds
7:15 PM 71.6 °F - 53.6 °F 53% 29.86 in 10.0 mi Calm Calm - N/A   Scattered Clouds
7:35 PM 71.6 °F - 55.4 °F 57% 29.86 in 10.0 mi Calm Calm - N/A   Clear
7:55 PM 69.8 °F - 55.4 °F 60% 29.87 in 10.0 mi Calm Calm - N/A   Clear
8:15 PM 69.8 °F - 53.6 °F 56% 29.87 in 10.0 mi Calm Calm - N/A   Clear
8:35 PM 68.0 °F - 55.4 °F 64% 29.87 in 10.0 mi Calm Calm - N/A   Clear
8:55 PM 64.4 °F - 55.4 °F 73% 29.87 in 10.0 mi Calm Calm - N/A   Clear
9:15 PM 62.6 °F - 55.4 °F 77% 29.87 in 10.0 mi Calm Calm - N/A   Clear
9:35 PM 62.6 °F - 55.4 °F 77% 29.88 in 10.0 mi Calm Calm - N/A   Clear
9:55 PM 60.8 °F - 55.4 °F 82% 29.87 in 10.0 mi Calm Calm - N/A   Clear
10:15 PM 60.8 °F - 55.4 °F 82% 29.87 in 10.0 mi Calm Calm - N/A   Clear
10:35 PM 60.8 °F - 55.4 °F 82% 29.87 in 10.0 mi Calm Calm - N/A   Clear
11:15 PM 60.8 °F - 55.4 °F 82% 29.87 in 10.0 mi Calm Calm - N/A   Clear
11:35 PM 60.8 °F - 53.6 °F 77% 29.86 in 10.0 mi Calm Calm - N/A   Clear